This is the latest recevied weather packets stored in our database for station/object N7SHZ. If no packets are shown the sender has not sent any weather packets the latest 1 day(s).
| Time | Temp. | Humidity | Pressure | Rain* | Wind** | Luminosity | Snow |
|---|---|---|---|---|---|---|---|
| 1778052930 | -6.11° C | 97% | 1030.6 hPa | - | - | 0 W/m² | - |
| 1778052022 | -6.11° C | 97% | 1029.7 hPa | - | - | 0 W/m² | - |
| 1778051720 | -6.11° C | 97% | 1029.8 hPa | - | - | 0 W/m² | - |
| 1778051417 | -6.11° C | 98% | 1029.9 hPa | - | - | 0 W/m² | - |
| 1778051114 | -6.11° C | 98% | 1029.7 hPa | - | - | 0 W/m² | - |
| 1778050811 | -5.56° C | 98% | 1029.8 hPa | - | - | 0 W/m² | - |
| 1778050509 | -5.56° C | 98% | 1029.5 hPa | - | - | 0 W/m² | - |
| 1778049597 | -5° C | 98% | 1029.7 hPa | - | - | 0 W/m² | - |
| 1778048993 | -5° C | 98% | 1028.7 hPa | - | - | 0 W/m² | - |
| 1778048691 | -5° C | 98% | 1029 hPa | - | - | 0 W/m² | - |
| 1778048387 | -5° C | 98% | 1029.3 hPa | - | - | 0 W/m² | - |
| 1778047782 | -4.44° C | 98% | 1029 hPa | - | - | 0 W/m² | - |
| 1778047480 | -3.89° C | 99% | 1029.3 hPa | - | - | 0 W/m² | - |
| 1778047176 | -3.89° C | 99% | 1029 hPa | - | - | 0 W/m² | - |
| 1778046873 | -3.89° C | 99% | 1028.9 hPa | - | - | 0 W/m² | - |
| 1778046570 | -3.89° C | 99% | 1029 hPa | - | - | 0 W/m² | - |
| 1778046267 | -3.89° C | 99% | 1029 hPa | - | - | 0 W/m² | - |
| 1778045963 | -3.33° C | 99% | 1029.4 hPa | - | - | 0 W/m² | - |
| 1778045360 | -3.33° C | 99% | 1028.9 hPa | - | - | 0 W/m² | - |
| 1778045058 | -3.33° C | 99% | 1029.1 hPa | - | - | 0 W/m² | - |
| 1778044755 | -2.78° C | 99% | 1029.3 hPa | - | - | 0 W/m² | - |
| 1778044452 | -3.33° C | 99% | 1029.1 hPa | - | - | 0 W/m² | - |
| 1778044149 | -2.78° C | 99% | 1029 hPa | - | - | 0 W/m² | - |
| 1778043240 | -2.22° C | 99% | 1028.3 hPa | - | - | 0 W/m² | - |
| 1778042937 | -2.22° C | 99% | 1028.5 hPa | - | - | 0 W/m² | - |
* Rain since midnight (hover to see other rain measurements)
** Current wind speed in m/s (hover to see current wind gust speed)